Regional Weather Roundup
Issued by NWS

Home | Current Version | Previous Version | Text Only | Print | Product List | Glossary Off
Versions: 1 2 3 4 5 6 7 8 9 10 11 12 13 14 15 16 17 18 19 20 21 22 23 24 25 26 27 28 29 30 31 32 33 34 35 36 37 38 39 40 41 42 43 44 45 46 47 48 49 50

000
ASUS44 KMEG 271910
RWRTN
TENNESSEE HOURLY STATE WEATHER ROUNDUP
NATIONAL WEATHER SERVICE MEMPHIS TN
200 PM CDT FRI MAY 27 2016

TNZ002-004-019-021-049-052-054-088>092-272000-
WEST TENNESSEE

CITY           SKY/WX    TMP DP  RH WIND       PRES   REMARKS
MEMPHIS INTL   CLOUDY    80  67  64 S12       29.90F
NWS MEMPHIS      N/A     79 N/A N/A MISG        N/A
JACKSON        CLOUDY    77  68  73 S6        29.95F
DYERSBURG      CLOUDY    81  64  57 S10G21    29.92S
UNION CITY     MOSUNNY   81  72  74 S14       29.92F
PARIS          MOSUNNY   81  64  57 S15       29.96F
LEXINGTON      SUNNY     82  63  51 S17       29.96F
$$

TNZ008-025-027-028-033-062-065-066-272000-
NORTH MIDDLE TENNESSEE

CITY           SKY/WX    TMP DP  RH WIND       PRES   REMARKS
NASHVILLE      PTSUNNY   89  60  37 SW14      30.00F
CLARKSVILLE    MOSUNNY   81  65  58 S10       29.97F
SMYRNA         CLOUDY    87  64  46 S10       30.00F
COOKEVILLE     MOSUNNY   88  68  51 SW7       30.03F HX  91
CROSSVILLE     CLOUDY    79  61  53 SE7       30.10F
$$

TNZ061-075-076-078-094-096-097-272000-
SOUTH MIDDLE TENNESSEE

CITY           SKY/WX    TMP DP  RH WIND       PRES   REMARKS
FAYETTEVILLE   MOSUNNY   84  63  48 SW9G17    30.03F
TULLAHOMA      MOSUNNY   84  63  48 SW10      30.04F
WINCHESTER     MOSUNNY   88  63  42 S12       30.03F
MCMINNVILLE    MOSUNNY   88  64  45 VRB6      30.03F
COLUMBIA       SUNNY     84  68  58 S13       29.99F
SHELBYVILLE    MOSUNNY   90  64  43 S14       30.02F HX  91
$$

TNZ017-018-042-046-047-272000-
NORTHEAST TENNESSEE

CITY           SKY/WX    TMP DP  RH WIND       PRES   REMARKS
TRI CITIES     MOSUNNY   85  60  42 W5        30.09F
$$

TNZ012-013-036-069-073-074-272000-
CENTRAL EAST TENNESSEE

CITY           SKY/WX    TMP DP  RH WIND       PRES   REMARKS
KNOXVILLE      TSTM      70  64  81 NE10      30.08R
OAK RIDGE      MOSUNNY   85  62  46 VRB6      30.08S
GATLINBURG       N/A     79  66  65 S8        30.08R
$$

TNZ083-085-099-272000-
SOUTHEAST TENNESSEE

CITY           SKY/WX    TMP DP  RH WIND       PRES   REMARKS
CHATTANOOGA    PTSUNNY   88  63  43 S13G18    30.03F
$$

SKY/WX REPORTED AS FAIR MEANS FEW OR NO CLOUDS BELOW
12 THOUSAND FEET.





USA.gov is the U.S. government's official web portal to all federal, state and local government web resources and services.